Flag for Brazil Weather past 2 weeks in Cuiabá, Mato Grosso, Brazil

Now
77 °F

Partly sunny.


Feels Like: 78 °F
Forecast: 75 / 87 °F
Wind: 5 mph from North

Location: Cuiaba Aeroporto

Current Time: Mar 5, 2015 at 8:42:21 AM

Latest Report: Mar 5, 2015 at 8:00 AM


Visibility: N/A

Pressure: 29.98 "Hg

Humidity: 83%

Dew point: 72 °F

Location of CuiabáLocation

Historic Weather in Cuiabá — Graph

°F

Cuiabá temperature yesterday

Maximum temperature yesterday: 86 °F (at 2:00 PM)
Minimum temperature yesterday: 73 °F (at 9:00 PM)
Average temperature yesterday: 79 °F

Past Weeks' High & Low Weather Summary

 TemperatureHumidityPressure
High91 °F (Feb 24, 3:00 PM)100% (Feb 20, 6:00 AM)30.01 "Hg (Feb 20, 6:00 AM)
Low34 °F (Mar 2, 1:00 PM)46% (Feb 24, 3:00 PM)29.71 "Hg (Feb 18, 5:00 PM)
Average78 °F81%29.89 "Hg
* Reported Feb 18 8:00 AM — Mar 5 7:00 AM, Cuiabá, Weather by CustomWeather, © 2015

Note: Actual official high and low records may vary slightly from our data, if they occured in-between our weather recording intervals... More about our weather records

Advertising

Cuiabá weather history for previous 24 hours

 ConditionsComfort  
Time TempWeatherWind HumidityBarometerVisibility
7:00 AM
Thu, Mar 5
75 °FPartly sunny.3 mph89%29.95 "HgN/A
5:00 AM73 °FPassing clouds.No wind94%29.92 "HgN/A
4:00 AM73 °FPassing clouds.2 mph89%29.92 "HgN/A
3:00 AM72 °FPassing clouds.No wind100%29.92 "HgN/A
2:00 AM73 °FPartly cloudy.3 mph94%29.89 "HgN/A
1:00 AM73 °FLight rain. Partly cloudy.2 mph89%29.92 "HgN/A
12:00 AM73 °FLight rain. Partly cloudy.No wind89%29.92 "HgN/A
11:00 PM
Wed, Mar 4
73 °FLight rain. Passing clouds.3 mph89%29.92 "HgN/A
10:00 PM73 °FLight rain. Passing clouds.6 mph89%29.95 "HgN/A
9:00 PM73 °FPassing clouds.6 mph89%29.95 "HgN/A
8:00 PM79 °FPartly cloudy.12 mph74%29.92 "HgN/A
7:00 PM81 °FPassing clouds.2 mph84%29.86 "HgN/A
6:00 PM81 °FScattered clouds.3 mph79%29.83 "HgN/A
5:00 PM82 °FPassing clouds.3 mph79%29.80 "HgN/A
4:00 PM84 °FScattered clouds.3 mph66%29.80 "HgN/A
3:00 PM86 °FScattered clouds.5 mph59%29.83 "HgN/A
2:00 PM86 °FBroken clouds.2 mph62%29.89 "HgN/A
1:00 PM84 °FBroken clouds.No wind66%29.92 "HgN/A
12:00 PM82 °FScattered clouds.2 mph70%29.95 "HgN/A
10:00 AM81 °FPartly sunny.5 mph74%29.98 "HgN/A
9:00 AM79 °FPartly sunny.2 mph84%29.98 "HgN/A
8:00 AM77 °FPartly sunny.6 mph83%29.98 "HgN/A
Weather by CustomWeather, © 2015

See weather overviewHow to use our weather pages